KF5CFW Weather Reports


time (UTC)temp
C
wind
direction
speed
KPH
gust
KPH
rain 1hr
cm
rain 24hr
cm
rain mn
cm
humidity
%
barometer
mb
20260510133050 21 155 0.0 0.0 0.00 0.00 0.00 51 1013.5
20260510131548 21 155 0.0 1.6 0.00 0.00 0.00 53 1013.2
20260510130047 21 161 0.0 1.6 0.00 0.00 0.00 49 1013.0
20260510124548 21 89 0.0 1.6 0.00 0.00 0.00 49 1012.9
20260510123144 20 71 0.0 1.6 0.00 0.00 0.00 49 1012.8
20260510121544 20 138 0.0 1.6 0.00 0.00 0.00 50 1012.5
20260510120040 21 130 0.0 1.6 0.00 0.00 0.00 51 1012.4
20260510114602 21 43 0.0 1.6 0.00 0.00 0.00 51 1012.3
20260510113051 21 128 0.0 1.6 0.00 0.00 0.00 53 1012.3
20260510111536 21 75 0.0 1.6 0.00 0.00 0.00 53 1012.3
20260510110037 21 179 0.0 1.6 0.00 0.00 0.00 54 1012.0
20260510104530 22 204 0.0 1.6 0.00 0.00 0.00 54 1012.0
20260510103030 22 68 0.0 3.2 0.00 0.00 0.00 53 1012.0
20260510101528 22 67 0.0 1.6 0.00 0.00 0.00 50 1012.0
20260510100031 22 39 0.0 11.3 0.00 0.00 0.00 49 1012.0
20260510094530 23 155 0.0 0.0 0.00 0.00 0.00 10 1011.5
20260510093019 23 155 0.0 0.0 0.00 0.00 0.00 9 1011.5
20260510091516 23 155 0.0 0.0 0.00 0.00 0.00 11 1010.8
20260510090013 23 155 0.0 0.0 0.00 0.00 0.00 14 1010.3
20260510084512 23 155 0.0 0.0 0.00 0.00 0.00 17 1010.2
20260510083015 22 155 0.0 0.0 0.00 0.00 0.00 14 1010.2
20260510081508 23 155 0.0 0.0 0.00 0.00 0.00 24 1009.4
20260510080005 23 155 0.0 0.0 0.00 0.00 0.00 32 1009.0
20260510074502 23 155 0.0 0.0 0.00 0.00 0.00 37 1009.0
20260510073100 23 155 0.0 0.0 0.00 0.00 0.00 39 1008.8
20260510071604 23 155 0.0 0.0 0.00 0.00 0.00 43 1008.7
20260510070109 24 155 0.0 0.0 0.00 0.00 0.00 48 1009.3
20260510064601 24 155 0.0 1.6 0.00 0.00 0.00 49 1009.6
20260510063100 23 338 0.0 0.0 0.00 0.00 0.00 51 1010.1
20260510061552 24 155 0.0 1.6 0.00 0.00 0.00 54 1008.6
20260510060049 24 97 0.0 1.6 0.00 0.00 0.00 56 1007.9
20260510054551 24 96 0.0 1.6 0.00 0.00 0.00 57 1007.7
20260510053041 25 91 0.0 0.0 0.00 0.00 0.00 57 1007.9
20260510051539 25 117 0.0 1.6 0.00 0.00 0.00 57 1007.5
20260510050040 25 162 0.0 1.6 0.00 0.00 0.00 57 1007.2
20260510044527 25 124 0.0 1.6 0.00 0.00 0.00 58 1007.1
20260510043022 25 112 0.0 1.6 0.00 0.00 0.00 58 1007.4
20260510041518 25 132 0.0 1.6 0.00 0.00 0.00 59 1007.5
20260510040013 25 79 0.0 0.0 0.00 0.00 0.00 59 1007.7
20260510034509 25 134 0.0 1.6 0.00 0.00 0.00 59 1007.7
20260510033004 25 170 0.0 1.6 0.00 0.00 0.00 59 1007.8
20260510031629 25 153 0.0 0.0 0.00 0.00 0.00 58 1007.9
20260510030100 26 154 0.0 0.0 0.00 0.00 0.00 58 1007.8
20260510024554 26 154 0.0 0.0 0.00 0.00 0.00 57 1007.5
20260510023054 26 154 0.0 0.0 0.00 0.00 0.00 56 1007.5
20260510021550 26 154 0.0 0.0 0.00 0.00 0.00 56 1007.3
20260510020047 27 153 0.0 0.0 0.00 0.00 0.00 55 1007.1
20260510014541 27 208 0.0 0.0 0.00 0.00 0.00 55 1006.9
20260510013040 27 207 0.0 0.0 0.00 0.00 0.00 55 1006.7
20260510011534 27 226 0.0 1.6 0.00 0.00 0.00 57 1006.6
20260510010027 27 226 0.0 0.0 0.00 0.00 0.00 52 1006.4
20260510004522 28 226 0.0 0.0 0.00 0.00 0.00 51 1006.2
20260510003018 28 226 0.0 0.0 0.00 0.00 0.00 51 1006.2
20260510001521 29 226 0.0 0.0 0.00 0.00 0.00 50 1006.3
20260510000010 29 226 0.0 0.0 0.00 0.00 0.00 47 1006.3
20260509234508 30 226 0.0 1.6 0.00 0.00 0.00 47 1006.3
20260509233000 30 226 0.0 0.0 0.00 0.00 0.00 47 1006.4
20260509231557 31 226 0.0 1.6 0.00 0.00 0.00 46 1006.3
20260509230054 31 226 0.0 0.0 0.00 0.00 0.00 46 1006.4
20260509224548 32 226 0.0 0.0 0.00 0.00 0.00 43 1006.3
20260509223052 32 226 0.0 0.0 0.00 0.00 0.00 42 1006.4
20260509221540 33 150 0.0 1.6 0.00 0.00 0.00 41 1006.3
20260509220043 35 72 0.0 0.0 0.00 0.00 0.00 42 1006.4
20260509214537 34 72 0.0 0.0 0.00 0.00 0.00 42 1006.5
20260509213027 34 11 0.0 1.6 0.00 0.00 0.00 41 1006.7
20260509211525 35 350 0.0 1.6 0.00 0.00 0.00 43 1006.8
20260509210018 35 224 0.0 0.0 0.00 0.00 0.00 39 1007.0
20260509204524 34 136 0.0 1.6 0.00 0.00 0.00 37 1007.3
20260509203009 33 23 0.0 1.6 0.00 0.00 0.00 37 1007.6
20260509201504 34 15 0.0 1.6 0.00 0.00 0.00 36 1007.7
20260509200100 33 5 0.0 0.0 0.00 0.00 0.00 44 1007.8
20260509194558 33 21 0.0 3.2 0.00 0.00 0.00 42 1008.1
20260509193051 33 18 0.0 1.6 0.00 0.00 0.00 41 1008.1
20260509191552 32 17 0.0 1.6 0.00 0.00 0.00 45 1008.2
20260509190044 32 67 0.0 1.6 0.00 0.00 0.00 47 1008.4
20260509184539 32 356 0.0 3.2 0.00 0.00 0.00 46 1008.6
20260509183033 32 193 0.0 3.2 0.00 0.00 0.00 44 1008.6
20260509181528 32 231 0.0 3.2 0.00 0.00 0.00 46 1008.8
20260509180025 31 356 0.0 1.6 0.00 0.00 0.00 47 1008.9
20260509174520 31 5 0.0 3.2 0.00 0.00 0.00 46 1009.0
20260509173015 31 356 0.0 1.6 0.00 0.00 0.00 47 1009.1
20260509171513 30 359 0.0 1.6 0.00 0.00 0.00 49 1009.3
20260509170007 30 352 0.0 1.6 0.00 0.00 0.00 50 1009.5
20260509164502 29 4 0.0 1.6 0.00 0.00 0.00 50 1009.6
20260509163105 28 283 0.0 1.6 0.00 0.00 0.00 52 1009.6
20260509161554 27 360 0.0 1.6 0.00 0.00 0.00 54 1009.7
20260509160049 27 349 0.0 1.6 0.00 0.00 0.00 55 1009.6
20260509154557 26 249 0.0 1.6 0.00 0.00 0.00 55 1009.4
20260509153040 26 231 0.0 1.6 0.00 0.00 0.00 53 1009.5
20260509151535 25 232 0.0 1.6 0.00 0.00 0.00 52 1009.6
20260509150032 25 345 0.0 1.6 0.00 0.00 0.00 51 1009.7
20260509144527 24 356 0.0 1.6 0.00 0.00 0.00 48 1009.7
20260509143023 23 226 0.0 1.6 0.00 0.00 0.00 34 1009.8
20260509141518 23 352 0.0 1.6 0.00 0.00 0.00 14 1009.8
20260509140014 22 326 0.0 1.6 0.00 0.00 0.00 1 1009.7
20260509134511 21 321 0.0 1.6 0.00 0.00 0.00 1 1009.6